Location: Fornova de Taro
(44.7000°N, 10.1000°E)
Time: 02:03:16
(UTC+00:00)

Cosmos 1544 Rocket - Pass Details

Date: 26 May 2022
Orbit: 603 x 631 km, 82.5° (Epoch: 26 June)

Event Time Altitude Azimuth Distance (km) Brightness Sun altitude
Rises 01:04:37 0° 352° (N) 2,916 7.9 -19.7°
Reaches altitude 10° 01:06:52 10° 353° (N) 2,000 7.0 -19.6°
Maximum altitude 01:11:18 81° 80° (E) 632 3.6 -19.2°
Enters shadow 01:13:12 34° 165° (SSE) 1,026 4.3 -19.0°
